Datetime-UTC, Datetime-J2000, North, East, Up
2024/03/21 00:00:00, 764251200.00, 0.000000, 0.000000, 0.000000
2024/03/21 00:05:00, 764251500.00, 0.003000, 0.002900, 0.019700
2024/03/21 00:10:00, 764251800.00, 0.000100, 0.003300, 0.057700
2024/03/21 00:15:00, 764252100.00, 0.001200, 0.002400, 0.035200
2024/03/21 00:20:00, 764252400.00, 0.002100, -0.003800, 0.053600
2024/03/21 00:25:00, 764252700.00, 0.009900, -0.006200, 0.056600
2024/03/21 00:30:00, 764253000.00, 0.004800, -0.007700, 0.064200
2024/03/21 00:35:00, 764253300.00, 0.007700, -0.017000, 0.056100
2024/03/21 00:40:00, 764253600.00, -0.010400, -0.013100, 0.086100
2024/03/21 00:45:00, 764253900.00, 0.000400, -0.004400, 0.077300
2024/03/21 00:50:00, 764254200.00, -0.002100, -0.008700, 0.082600
2024/03/21 00:55:00, 764254500.00, -0.003300, -0.005400, 0.092500
2024/03/21 01:00:00, 764254800.00, -0.001900, 0.005800, 0.074100
2024/03/21 01:05:00, 764255100.00, -0.009300, 0.001100, 0.075500
2024/03/21 01:10:00, 764255400.00, -0.002500, -0.000700, 0.083300
2024/03/21 01:15:00, 764255700.00, -0.001900, 0.004300, 0.097000
2024/03/21 01:20:00, 764256000.00, 0.003100, 0.006800, 0.087500
2024/03/21 01:25:00, 764256300.00, 0.009600, 0.001500, 0.081200
2024/03/21 01:30:00, 764256600.00, 0.002400, 0.000500, 0.097800
2024/03/21 01:35:00, 764256900.00, 0.004000, -0.005100, 0.106200
2024/03/21 01:40:00, 764257200.00, 0.000900, 0.003000, 0.094700
2024/03/21 01:45:00, 764257500.00, 0.003000, -0.002600, 0.069900
2024/03/21 01:50:00, 764257800.00, -0.003200, 0.005900, 0.092800
2024/03/21 01:55:00, 764258100.00, 0.006700, -0.002000, 0.092900
2024/03/21 02:00:00, 764258400.00, 0.005100, -0.001800, 0.077700
2024/03/21 02:05:00, 764258700.00, 0.006000, -0.002500, 0.103400
2024/03/21 02:10:00, 764259000.00, 0.006500, 0.004900, 0.115500
2024/03/21 02:15:00, 764259300.00, -0.000300, 0.005000, 0.104300
2024/03/21 02:20:00, 764259600.00, -0.002700, 0.002900, 0.077900
2024/03/21 02:25:00, 764259900.00, -0.005300, 0.007200, 0.089700
2024/03/21 02:30:00, 764260200.00, 0.005000, 0.003600, 0.101400
2024/03/21 02:35:00, 764260500.00, -0.002600, 0.004800, 0.100400
2024/03/21 02:40:00, 764260800.00, -0.002800, 0.006400, 0.106400
2024/03/21 02:45:00, 764261100.00, 0.002200, 0.010300, 0.127800
2024/03/21 02:50:00, 764261400.00, 0.005000, 0.005900, 0.107400
2024/03/21 02:55:00, 764261700.00, 0.001300, 0.007300, 0.099700
2024/03/21 03:00:00, 764262000.00, -0.002400, 0.013000, 0.108900
2024/03/21 03:05:00, 764262300.00, 0.005400, 0.015400, 0.097300
2024/03/21 03:10:00, 764262600.00, 0.000300, 0.008600, 0.110600
2024/03/21 03:15:00, 764262900.00, 0.001400, 0.012100, 0.093300
2024/03/21 03:20:00, 764263200.00, 0.000100, 0.006300, 0.111000
2024/03/21 03:25:00, 764263500.00, -0.005300, 0.010400, 0.095300
2024/03/21 03:30:00, 764263800.00, -0.003700, 0.007000, 0.103200
2024/03/21 03:35:00, 764264100.00, 0.003000, 0.009000, 0.105200
2024/03/21 03:40:00, 764264400.00, -0.003400, 0.011500, 0.089500
2024/03/21 03:45:00, 764264700.00, -0.002300, 0.008900, 0.106200
2024/03/21 03:50:00, 764265000.00, -0.000900, 0.012900, 0.110300
2024/03/21 03:55:00, 764265300.00, -0.002500, 0.008200, 0.092800
2024/03/21 04:00:00, 764265600.00, -0.001800, 0.006100, 0.079500
2024/03/21 04:05:00, 764265900.00, 0.003600, 0.002200, 0.096900
2024/03/21 04:10:00, 764266200.00, 0.006300, 0.002300, 0.076000
2024/03/21 04:15:00, 764266500.00, 0.011000, 0.001000, 0.074700
2024/03/21 04:20:00, 764266800.00, 0.010600, 0.007000, 0.097000
2024/03/21 04:25:00, 764267100.00, 0.004100, 0.006400, 0.095200
2024/03/21 04:30:00, 764267400.00, 0.005300, 0.004400, 0.091300
2024/03/21 04:35:00, 764267700.00, 0.007500, 0.012700, 0.078800
2024/03/21 04:40:00, 764268000.00, 0.010600, 0.003200, 0.071100
2024/03/21 04:45:00, 764268300.00, 0.001100, 0.009600, 0.081400
2024/03/21 04:50:00, 764268600.00, 0.007200, 0.006800, 0.059900
2024/03/21 04:55:00, 764268900.00, 0.004600, 0.000700, 0.084600
2024/03/21 05:00:00, 764269200.00, 0.006300, 0.000400, 0.098700
2024/03/21 05:05:00, 764269500.00, 0.013600, 0.006900, 0.082300
2024/03/21 05:10:00, 764269800.00, 0.016100, 0.003800, 0.098900
2024/03/21 05:15:00, 764270100.00, 0.017000, 0.002800, 0.077400
2024/03/21 05:20:00, 764270400.00, 0.018300, 0.001400, 0.079900
2024/03/21 05:25:00, 764270700.00, 0.009600, 0.004800, 0.079600
2024/03/21 05:30:00, 764271000.00, 0.003900, 0.005800, 0.081700
2024/03/21 05:35:00, 764271300.00, 0.001400, 0.013800, 0.103700
2024/03/21 05:40:00, 764271600.00, -0.012800, 0.011900, 0.073000
2024/03/21 05:45:00, 764271900.00, -0.012000, 0.020000, 0.070500
2024/03/21 05:50:00, 764272200.00, -0.016600, 0.012800, 0.072000
2024/03/21 05:55:00, 764272500.00, -0.013500, 0.018700, 0.081900
2024/03/21 06:00:00, 764272800.00, -0.007500, 0.014800, 0.074500
2024/03/21 06:05:00, 764273100.00, -0.018300, 0.022400, 0.076600
2024/03/21 06:10:00, 764273400.00, -0.008700, 0.008400, 0.079200
2024/03/21 06:15:00, 764273700.00, -0.011900, 0.008000, 0.090600
2024/03/21 06:20:00, 764274000.00, -0.006800, 0.012300, 0.086700
2024/03/21 06:25:00, 764274300.00, -0.000900, 0.009600, 0.100200
2024/03/21 06:30:00, 764274600.00, -0.006900, 0.010700, 0.116700
2024/03/21 06:35:00, 764274900.00, 0.003900, 0.011500, 0.087700
2024/03/21 06:40:00, 764275200.00, 0.005800, 0.006900, 0.083200
2024/03/21 06:45:00, 764275500.00, 0.010700, 0.005000, 0.072100
2024/03/21 06:50:00, 764275800.00, 0.014700, 0.021000, 0.074500
2024/03/21 06:55:00, 764276100.00, 0.020600, 0.024600, 0.080100
2024/03/21 07:00:00, 764276400.00, 0.016300, 0.022800, 0.071000
2024/03/21 07:05:00, 764276700.00, 0.017700, 0.017900, 0.068500
2024/03/21 07:10:00, 764277000.00, 0.014600, 0.013600, 0.078000
2024/03/21 07:15:00, 764277300.00, 0.019500, 0.012500, 0.085900
2024/03/21 07:20:00, 764277600.00, 0.016200, 0.019600, 0.079700
2024/03/21 07:25:00, 764277900.00, 0.015300, 0.009100, 0.086300
2024/03/21 07:30:00, 764278200.00, 0.005200, 0.010200, 0.086600
2024/03/21 07:35:00, 764278500.00, 0.017900, 0.015700, 0.039800
2024/03/21 07:40:00, 764278800.00, 0.018300, 0.013700, 0.047200
2024/03/21 07:45:00, 764279100.00, 0.010700, 0.010400, 0.085400
2024/03/21 07:50:00, 764279400.00, 0.010500, 0.014000, 0.046800
2024/03/21 07:55:00, 764279700.00, 0.003200, 0.009000, 0.048200
2024/03/21 08:00:00, 764280000.00, 0.000800, 0.011300, 0.061200
2024/03/21 08:05:00, 764280300.00, 0.002100, 0.015800, 0.087500
2024/03/21 08:10:00, 764280600.00, -0.000700, 0.012700, 0.092400
2024/03/21 08:15:00, 764280900.00, -0.001400, 0.015900, 0.077600
2024/03/21 08:20:00, 764281200.00, 0.003200, 0.013900, 0.081800
2024/03/21 08:25:00, 764281500.00, 0.012800, 0.014200, 0.085800
2024/03/21 08:30:00, 764281800.00, -0.001300, 0.014400, 0.088200
2024/03/21 08:35:00, 764282100.00, -0.008100, 0.013100, 0.079700
2024/03/21 08:40:00, 764282400.00, -0.002000, 0.014500, 0.087100
2024/03/21 08:45:00, 764282700.00, -0.000200, 0.012500, 0.097300
2024/03/21 08:50:00, 764283000.00, -0.001500, 0.015000, 0.092100
2024/03/21 08:55:00, 764283300.00, -0.009600, 0.014900, 0.087200
2024/03/21 09:00:00, 764283600.00, 0.000600, 0.015000, 0.085900
2024/03/21 09:05:00, 764283900.00, 0.004800, 0.016100, 0.093800
2024/03/21 09:10:00, 764284200.00, 0.010900, 0.009000, 0.099100
2024/03/21 09:15:00, 764284500.00, 0.010700, 0.014600, 0.099600
2024/03/21 09:20:00, 764284800.00, 0.001600, 0.014600, 0.083600
2024/03/21 09:25:00, 764285100.00, 0.012600, 0.025400, 0.080700
2024/03/21 09:30:00, 764285400.00, 0.004000, 0.008500, 0.105800
2024/03/21 09:35:00, 764285700.00, 0.016500, 0.018500, 0.067800
2024/03/21 09:40:00, 764286000.00, 0.002200, 0.011800, 0.082600
2024/03/21 09:45:00, 764286300.00, 0.010600, 0.017000, 0.063100
2024/03/21 09:50:00, 764286600.00, 0.002600, 0.018600, 0.093500
2024/03/21 09:55:00, 764286900.00, 0.015200, 0.016200, 0.064500
2024/03/21 10:00:00, 764287200.00, 0.005600, 0.019500, 0.071400
2024/03/21 10:05:00, 764287500.00, 0.007500, 0.013300, 0.079900
2024/03/21 10:10:00, 764287800.00, 0.008200, 0.016000, 0.074100
2024/03/21 10:15:00, 764288100.00, 0.006900, 0.020300, 0.081300
2024/03/21 10:20:00, 764288400.00, 0.007200, 0.024700, 0.076100
2024/03/21 10:25:00, 764288700.00, 0.006700, 0.016800, 0.074600
2024/03/21 10:30:00, 764289000.00, 0.002700, 0.013100, 0.075700
2024/03/21 10:35:00, 764289300.00, -0.001400, 0.015200, 0.060700
2024/03/21 10:40:00, 764289600.00, -0.001600, 0.020100, 0.087100
2024/03/21 10:45:00, 764289900.00, -0.002100, 0.021200, 0.080500
2024/03/21 10:50:00, 764290200.00, 0.001500, 0.019600, 0.093900
2024/03/21 10:55:00, 764290500.00, -0.007700, 0.008600, 0.063200
2024/03/21 11:00:00, 764290800.00, -0.004500, 0.022200, 0.077100
2024/03/21 11:05:00, 764291100.00, -0.009800, 0.025300, 0.064100
2024/03/21 11:10:00, 764291400.00, -0.005300, 0.016500, 0.068700
2024/03/21 11:15:00, 764291700.00, -0.015000, 0.017800, 0.069600
2024/03/21 11:20:00, 764292000.00, 0.001700, 0.020600, 0.112500
2024/03/21 11:25:00, 764292300.00, 0.007200, 0.021100, 0.124000
2024/03/21 11:30:00, 764292600.00, -0.001800, 0.021800, 0.085100
2024/03/21 11:35:00, 764292900.00, -0.004000, 0.016600, 0.080900
2024/03/21 11:40:00, 764293200.00, -0.000300, 0.018400, 0.103600
2024/03/21 11:45:00, 764293500.00, -0.002200, 0.018800, 0.072100
2024/03/21 11:50:00, 764293800.00, -0.001300, 0.013500, 0.093600
2024/03/21 11:55:00, 764294100.00, -0.000600, 0.026400, 0.075300
2024/03/21 12:00:00, 764294400.00, 0.002500, 0.022500, 0.099900
2024/03/21 12:05:00, 764294700.00, 0.002200, 0.017600, 0.117400
2024/03/21 12:10:00, 764295000.00, -0.001200, 0.020300, 0.090800
2024/03/21 12:15:00, 764295300.00, 0.007100, 0.016100, 0.089100
2024/03/21 12:20:00, 764295600.00, -0.003200, 0.017400, 0.085000
2024/03/21 12:25:00, 764295900.00, 0.003900, 0.023400, 0.079700
2024/03/21 12:30:00, 764296200.00, -0.003800, 0.022000, 0.115400
2024/03/21 12:35:00, 764296500.00, 0.000600, 0.024300, 0.090300
2024/03/21 12:40:00, 764296800.00, -0.006800, 0.018300, 0.091300
2024/03/21 12:45:00, 764297100.00, -0.002100, 0.021200, 0.094500
2024/03/21 12:50:00, 764297400.00, -0.013800, 0.020900, 0.109100
2024/03/21 12:55:00, 764297700.00, -0.000600, 0.024000, 0.089600
2024/03/21 13:00:00, 764298000.00, -0.006400, 0.022300, 0.087800
2024/03/21 13:05:00, 764298300.00, -0.004400, 0.016800, 0.070300
2024/03/21 13:10:00, 764298600.00, -0.004300, 0.017100, 0.093100
2024/03/21 13:15:00, 764298900.00, -0.007200, 0.014700, 0.079600
2024/03/21 13:20:00, 764299200.00, -0.004200, 0.018500, 0.083000
2024/03/21 13:25:00, 764299500.00, -0.006700, 0.019100, 0.094300
2024/03/21 13:30:00, 764299800.00, 0.001400, 0.020800, 0.077900
2024/03/21 13:35:00, 764300100.00, -0.006300, 0.017500, 0.097500
2024/03/21 13:40:00, 764300400.00, 0.011000, 0.021000, 0.105700
2024/03/21 13:45:00, 764300700.00, 0.001700, 0.021500, 0.092000
2024/03/21 13:50:00, 764301000.00, 0.003400, 0.021000, 0.083700
2024/03/21 13:55:00, 764301300.00, 0.007800, 0.025500, 0.096600
2024/03/21 14:00:00, 764301600.00, 0.013600, 0.023700, 0.092700
2024/03/21 14:05:00, 764301900.00, 0.004000, 0.023100, 0.076300
2024/03/21 14:10:00, 764302200.00, 0.003100, 0.022500, 0.099700
2024/03/21 14:15:00, 764302500.00, 0.012500, 0.023400, 0.089400
2024/03/21 14:20:00, 764302800.00, 0.003900, 0.025300, 0.094900
2024/03/21 14:25:00, 764303100.00, 0.009000, 0.024500, 0.102800
2024/03/21 14:30:00, 764303400.00, 0.002100, 0.022100, 0.095800
2024/03/21 14:35:00, 764303700.00, 0.006500, 0.015100, 0.094700
2024/03/21 14:40:00, 764304000.00, 0.007800, 0.028100, 0.097700
2024/03/21 14:45:00, 764304300.00, 0.008500, 0.017400, 0.093700
2024/03/21 14:50:00, 764304600.00, 0.007700, 0.019500, 0.100600
2024/03/21 14:55:00, 764304900.00, 0.011500, 0.022400, 0.111000
2024/03/21 15:00:00, 764305200.00, 0.009500, 0.024600, 0.115300
2024/03/21 15:05:00, 764305500.00, -0.003300, 0.028100, 0.115900
2024/03/21 15:10:00, 764305800.00, 0.006000, 0.028100, 0.084900
2024/03/21 15:15:00, 764306100.00, 0.015700, 0.019400, 0.066400
2024/03/21 15:20:00, 764306400.00, 0.008400, 0.027000, 0.096800
2024/03/21 15:25:00, 764306700.00, 0.013600, 0.031000, 0.050700
2024/03/21 15:30:00, 764307000.00, 0.007900, 0.018700, 0.103100
2024/03/21 15:35:00, 764307300.00, 0.001600, 0.029100, 0.074200
2024/03/21 15:40:00, 764307600.00, 0.005500, 0.026700, 0.102500
2024/03/21 15:45:00, 764307900.00, 0.000500, 0.027300, 0.108700
2024/03/21 15:50:00, 764308200.00, 0.001900, 0.024700, 0.096000
2024/03/21 15:55:00, 764308500.00, -0.001300, 0.031300, 0.096300
2024/03/21 16:00:00, 764308800.00, 0.000700, 0.027200, 0.103100
2024/03/21 16:05:00, 764309100.00, 0.006400, 0.027700, 0.100600
2024/03/21 16:10:00, 764309400.00, 0.002900, 0.026800, 0.096300
2024/03/21 16:15:00, 764309700.00, 0.000200, 0.026100, 0.091700
2024/03/21 16:20:00, 764310000.00, 0.000500, 0.020000, 0.086800
2024/03/21 16:25:00, 764310300.00, 0.000100, 0.029600, 0.098500
2024/03/21 16:30:00, 764310600.00, 0.000400, 0.031000, 0.100300
2024/03/21 16:35:00, 764310900.00, 0.003000, 0.024800, 0.092800
2024/03/21 16:40:00, 764311200.00, 0.003700, 0.035500, 0.105200
2024/03/21 16:45:00, 764311500.00, 0.011100, 0.031200, 0.091000
2024/03/21 16:50:00, 764311800.00, 0.000700, 0.025600, 0.084700
2024/03/21 16:55:00, 764312100.00, -0.002900, 0.027000, 0.096500
2024/03/21 17:00:00, 764312400.00, 0.005100, 0.031400, 0.098800
2024/03/21 17:05:00, 764312700.00, 0.007300, 0.028500, 0.100400
2024/03/21 17:10:00, 764313000.00, 0.008400, 0.028500, 0.092300
2024/03/21 17:15:00, 764313300.00, 0.009400, 0.026800, 0.089600
2024/03/21 17:20:00, 764313600.00, 0.004700, 0.026800, 0.098700
2024/03/21 17:25:00, 764313900.00, 0.009200, 0.028000, 0.091900
2024/03/21 17:30:00, 764314200.00, 0.014500, 0.031500, 0.096300
2024/03/21 17:35:00, 764314500.00, 0.013600, 0.023900, 0.089100
2024/03/21 17:40:00, 764314800.00, 0.010500, 0.032300, 0.107200
2024/03/21 17:45:00, 764315100.00, 0.010100, 0.022900, 0.089400
2024/03/21 17:50:00, 764315400.00, 0.008000, 0.026900, 0.094900
2024/03/21 17:55:00, 764315700.00, 0.007900, 0.030700, 0.087100
2024/03/21 18:00:00, 764316000.00, 0.007000, 0.024400, 0.080800
2024/03/21 18:05:00, 764316300.00, -0.005200, 0.028500, 0.101400
2024/03/21 18:10:00, 764316600.00, 0.005000, 0.029100, 0.095700
2024/03/21 18:15:00, 764316900.00, 0.008200, 0.019900, 0.072200
2024/03/21 18:20:00, 764317200.00, -0.006500, 0.030300, 0.089900
2024/03/21 18:25:00, 764317500.00, -0.006700, 0.035300, 0.089400
2024/03/21 18:30:00, 764317800.00, -0.004400, 0.037700, 0.082400
2024/03/21 18:35:00, 764318100.00, -0.001100, 0.030000, 0.072500
2024/03/21 18:40:00, 764318400.00, -0.003300, 0.035800, 0.097300
2024/03/21 18:45:00, 764318700.00, 0.008300, 0.036000, 0.083600
2024/03/21 18:50:00, 764319000.00, 0.004300, 0.040500, 0.079500
2024/03/21 18:55:00, 764319300.00, 0.010400, 0.029600, 0.078400
2024/03/21 19:00:00, 764319600.00, 0.010600, 0.029700, 0.084700
2024/03/21 19:05:00, 764319900.00, 0.002100, 0.031000, 0.082600
2024/03/21 19:10:00, 764320200.00, 0.005200, 0.025500, 0.078800
2024/03/21 19:15:00, 764320500.00, 0.011300, 0.031300, 0.080600
2024/03/21 19:20:00, 764320800.00, 0.001100, 0.025300, 0.092200
2024/03/21 19:25:00, 764321100.00, 0.009000, 0.028300, 0.058400
2024/03/21 19:30:00, 764321400.00, 0.018100, 0.030700, 0.096100
2024/03/21 19:35:00, 764321700.00, 0.024700, 0.032000, 0.088700
2024/03/21 19:40:00, 764322000.00, 0.017700, 0.034400, 0.099300
2024/03/21 19:45:00, 764322300.00, 0.025700, 0.030400, 0.080100
2024/03/21 19:50:00, 764322600.00, 0.024600, 0.031900, 0.101400
2024/03/21 19:55:00, 764322900.00, 0.026300, 0.034100, 0.089100
2024/03/21 20:00:00, 764323200.00, 0.028700, 0.026900, 0.085300
2024/03/21 20:05:00, 764323500.00, 0.004000, 0.027800, 0.092500
2024/03/21 20:10:00, 764323800.00, 0.003000, 0.021100, 0.091800
2024/03/21 20:15:00, 764324100.00, 0.005800, 0.018700, 0.083200
2024/03/21 20:20:00, 764324400.00, -0.008200, 0.023500, 0.090500
2024/03/21 20:25:00, 764324700.00, 0.004300, 0.029100, 0.106900
2024/03/21 20:30:00, 764325000.00, -0.004800, 0.028000, 0.088500
2024/03/21 20:35:00, 764325300.00, -0.000100, 0.026300, 0.072200
2024/03/21 20:40:00, 764325600.00, 0.009600, 0.034000, 0.068500
2024/03/21 20:45:00, 764325900.00, -0.007800, 0.029700, 0.065700
2024/03/21 20:50:00, 764326200.00, -0.004800, 0.027300, 0.074500
2024/03/21 20:55:00, 764326500.00, 0.004000, 0.032500, 0.073500
2024/03/21 21:00:00, 764326800.00, 0.002700, 0.032700, 0.054900
2024/03/21 21:05:00, 764327100.00, 0.000700, 0.021400, 0.070400
2024/03/21 21:10:00, 764327400.00, -0.009300, 0.036100, 0.053800
2024/03/21 21:15:00, 764327700.00, -0.022900, -0.054200, 0.063600
2024/03/21 21:20:00, 764328000.00, -0.011300, -0.052000, 0.081400
2024/03/21 21:25:00, 764328300.00, -0.017700, -0.048000, 0.084200
2024/03/21 21:30:00, 764328600.00, -0.026000, -0.054200, 0.091000
2024/03/21 21:35:00, 764328900.00, -0.019700, -0.047800, 0.086400
2024/03/21 21:40:00, 764329200.00, -0.014100, -0.050200, 0.084800
2024/03/21 21:45:00, 764329500.00, -0.018400, -0.058300, 0.099800
2024/03/21 21:50:00, 764329800.00, -0.017400, -0.046300, 0.113700
2024/03/21 21:55:00, 764330100.00, -0.014900, -0.045800, 0.112900
2024/03/21 22:00:00, 764330400.00, -0.018300, -0.046500, 0.096200
2024/03/21 22:05:00, 764330700.00, -0.016200, -0.047700, 0.110400
2024/03/21 22:10:00, 764331000.00, -0.021200, -0.044100, 0.116300
2024/03/21 22:15:00, 764331300.00, -0.004500, -0.037500, 0.120900
2024/03/21 22:20:00, 764331600.00, 0.000200, -0.034800, 0.105400
2024/03/21 22:25:00, 764331900.00, -0.003100, -0.042000, 0.105700
2024/03/21 22:30:00, 764332200.00, -0.008400, -0.024200, 0.091700
2024/03/21 22:35:00, 764332500.00, -0.007900, -0.029900, 0.117900
2024/03/21 22:40:00, 764332800.00, -0.006300, -0.029300, 0.108500
2024/03/21 22:45:00, 764333100.00, -0.005000, -0.030400, 0.108800
2024/03/21 22:50:00, 764333400.00, 0.000100, -0.026300, 0.096200
2024/03/21 22:55:00, 764333700.00, -0.002000, -0.023500, 0.094400
2024/03/21 23:00:00, 764334000.00, -0.000600, -0.026100, 0.101000
2024/03/21 23:05:00, 764334300.00, -0.005300, -0.033600, 0.101500
2024/03/21 23:10:00, 764334600.00, -0.003700, -0.028400, 0.075400
2024/03/21 23:15:00, 764334900.00, 0.001900, -0.034400, 0.102600
2024/03/21 23:20:00, 764335200.00, 0.004400, -0.026500, 0.107200
2024/03/21 23:30:00, 764335800.00, 0.008500, -0.026700, 0.137500
2024/03/22 00:00:00, 764337600.00, -0.005300, -0.008400, 0.086500
2024/03/22 00:05:00, 764337900.00, -0.001800, -0.001700, 0.097800
2024/03/22 00:10:00, 764338200.00, -0.002700, -0.001800, 0.078700
2024/03/22 00:15:00, 764338500.00, 0.004500, -0.013300, 0.075600
2024/03/22 00:20:00, 764338800.00, 0.004100, -0.011200, 0.070600
2024/03/22 00:25:00, 764339100.00, 0.013500, -0.022300, 0.045500
2024/03/22 00:30:00, 764339400.00, 0.004700, -0.009800, 0.047400
2024/03/22 00:35:00, 764339700.00, 0.002700, -0.004000, 0.059000
2024/03/22 00:40:00, 764340000.00, 0.001100, 0.001500, 0.069500
2024/03/22 00:45:00, 764340300.00, 0.006500, -0.005500, 0.067200
2024/03/22 00:50:00, 764340600.00, 0.003500, -0.005100, 0.073300
2024/03/22 00:55:00, 764340900.00, -0.002400, 0.001800, 0.079000
2024/03/22 01:00:00, 764341200.00, 0.004300, -0.002400, 0.066300
2024/03/22 01:05:00, 764341500.00, 0.008200, -0.005300, 0.073100
2024/03/22 01:10:00, 764341800.00, -0.003400, -0.000600, 0.079100
2024/03/22 01:15:00, 764342100.00, -0.005400, 0.002400, 0.075900
2024/03/22 01:20:00, 764342400.00, 0.001000, -0.001200, 0.059200
2024/03/22 01:25:00, 764342700.00, -0.005900, 0.000000, 0.082900
2024/03/22 01:30:00, 764343000.00, -0.006100, -0.006600, 0.084900
2024/03/22 01:35:00, 764343300.00, -0.003500, 0.005600, 0.077900
2024/03/22 01:40:00, 764343600.00, -0.006000, -0.005400, 0.087600
2024/03/22 01:45:00, 764343900.00, -0.004300, 0.006000, 0.083400
2024/03/22 01:50:00, 764344200.00, 0.003300, -0.002000, 0.082300
2024/03/22 01:55:00, 764344500.00, 0.002000, -0.002800, 0.074100
2024/03/22 02:00:00, 764344800.00, 0.005400, 0.000800, 0.085700
2024/03/22 02:05:00, 764345100.00, 0.002100, -0.001800, 0.103400
2024/03/22 02:10:00, 764345400.00, 0.000300, -0.006800, 0.098800
2024/03/22 02:15:00, 764345700.00, -0.000200, -0.002300, 0.098300
2024/03/22 02:20:00, 764346000.00, -0.002200, -0.001000, 0.096000
2024/03/22 02:25:00, 764346300.00, 0.006100, 0.000200, 0.096300
2024/03/22 02:30:00, 764346600.00, 0.008100, -0.000300, 0.092600
2024/03/22 02:35:00, 764346900.00, 0.005200, 0.003600, 0.128200
2024/03/22 02:40:00, 764347200.00, 0.010300, -0.005600, 0.110100
2024/03/22 02:45:00, 764347500.00, 0.006400, 0.000100, 0.106100
2024/03/22 02:50:00, 764347800.00, -0.000300, 0.006000, 0.105800
2024/03/22 02:55:00, 764348100.00, 0.004700, 0.005800, 0.098900
2024/03/22 03:00:00, 764348400.00, 0.005200, 0.001000, 0.088600
2024/03/22 03:05:00, 764348700.00, 0.003400, -0.004400, 0.094300
2024/03/22 03:10:00, 764349000.00, -0.002100, -0.002100, 0.099000
2024/03/22 03:15:00, 764349300.00, 0.002700, 0.005800, 0.083600
2024/03/22 03:20:00, 764349600.00, 0.003300, 0.006600, 0.101200
2024/03/22 03:25:00, 764349900.00, 0.005300, 0.005200, 0.105100
2024/03/22 03:30:00, 764350200.00, -0.000400, 0.007000, 0.088400
2024/03/22 03:35:00, 764350500.00, -0.002800, -0.000200, 0.088400
2024/03/22 03:40:00, 764350800.00, 0.003600, -0.000900, 0.097800
2024/03/22 03:45:00, 764351100.00, 0.003100, 0.005800, 0.095800
2024/03/22 03:50:00, 764351400.00, 0.004700, 0.007800, 0.097900
2024/03/22 03:55:00, 764351700.00, 0.002400, -0.000900, 0.092700
2024/03/22 04:00:00, 764352000.00, 0.002500, 0.001600, 0.095700
2024/03/22 04:05:00, 764352300.00, 0.000700, 0.006000, 0.106000
2024/03/22 04:10:00, 764352600.00, 0.005900, 0.000400, 0.106000
2024/03/22 04:15:00, 764352900.00, 0.001700, 0.002200, 0.109300
2024/03/22 04:20:00, 764353200.00, 0.000600, 0.000500, 0.106000
2024/03/22 04:25:00, 764353500.00, -0.003900, -0.005700, 0.094600
2024/03/22 04:30:00, 764353800.00, 0.007000, -0.000200, 0.075900
2024/03/22 04:35:00, 764354100.00, 0.009300, -0.001000, 0.074600
2024/03/22 04:40:00, 764354400.00, 0.002200, -0.000600, 0.090600
2024/03/22 04:45:00, 764354700.00, 0.001100, -0.003900, 0.093100
2024/03/22 04:50:00, 764355000.00, -0.000500, 0.000000, 0.100100
2024/03/22 04:55:00, 764355300.00, 0.003900, -0.003600, 0.101400
2024/03/22 05:00:00, 764355600.00, 0.004000, 0.001700, 0.118000
2024/03/22 05:05:00, 764355900.00, 0.016600, -0.003800, 0.112600
2024/03/22 05:10:00, 764356200.00, 0.017900, -0.005400, 0.091800
2024/03/22 05:15:00, 764356500.00, 0.018700, -0.002100, 0.091700
2024/03/22 05:20:00, 764356800.00, 0.018500, -0.003400, 0.100300
2024/03/22 05:25:00, 764357100.00, 0.006300, -0.005100, 0.096700
2024/03/22 05:30:00, 764357400.00, 0.004800, 0.005900, 0.108800
2024/03/22 05:35:00, 764357700.00, -0.003400, 0.004100, 0.090500
2024/03/22 05:40:00, 764358000.00, -0.011100, 0.008900, 0.092700
2024/03/22 05:45:00, 764358300.00, -0.009100, 0.012800, 0.087000
2024/03/22 05:50:00, 764358600.00, -0.004600, 0.010900, 0.094300
2024/03/22 05:55:00, 764358900.00, 0.000600, 0.013500, 0.077300
2024/03/22 06:00:00, 764359200.00, -0.001400, 0.012900, 0.098100
2024/03/22 06:05:00, 764359500.00, -0.001200, 0.014100, 0.090300
2024/03/22 06:10:00, 764359800.00, 0.007200, 0.006000, 0.093700
2024/03/22 06:15:00, 764360100.00, 0.005900, 0.012900, 0.097900
2024/03/22 06:20:00, 764360400.00, 0.007900, 0.005700, 0.105600
2024/03/22 06:25:00, 764360700.00, -0.003800, 0.004900, 0.103300
2024/03/22 06:30:00, 764361000.00, 0.013200, 0.016500, 0.094000
2024/03/22 06:35:00, 764361300.00, 0.005300, 0.010400, 0.101500
2024/03/22 06:40:00, 764361600.00, 0.018200, 0.021000, 0.093500
2024/03/22 06:45:00, 764361900.00, 0.019300, 0.011000, 0.078200
2024/03/22 06:50:00, 764362200.00, 0.019400, 0.015800, 0.069700
2024/03/22 06:55:00, 764362500.00, 0.021900, 0.022100, 0.065000
2024/03/22 07:00:00, 764362800.00, 0.015100, 0.015700, 0.066600
2024/03/22 07:05:00, 764363100.00, 0.021000, 0.012300, 0.105000
2024/03/22 07:10:00, 764363400.00, 0.014100, 0.012300, 0.081200
2024/03/22 07:15:00, 764363700.00, 0.029800, 0.030100, 0.047800